Tracking 19905 objects as of 17-Oct-2019
HD Live streaming from Space Station
objects crossing your sky now

DELTA 1 DEB

Track DELTA 1 DEB now!
10-day predictions


NORAD ID: 39096
Int'l Code: 1973-086HJ
Perigee: 1,466.3 km
Apogee: 1,587.0 km
Inclination: 101.4 °
Period: 116.4 minutes
Semi major axis: 7897 km
RCS: 0.0093 m2 (small)
Launch date: November 6, 1973
Source: United States (US)
Launch site: AIR FORCE WESTERN TEST RANGE (AFWTR)

Note: This is SATELLITE DEBRIS
aabbcc
Your satellite tracking list
Your tracking list is empty




NASA's NSSDC Master Catalog

Two Line Element Set (TLE):
1 39096U 73086HJ  19269.37696900 -.00000232  00000-0 -14723-2 0  9996
2 39096 101.3503 324.0523 0076421   1.6135 358.5163 12.36968197743969
Source of the keplerian elements: AFSPC